• In United Kingdom
  • List of Countries
  • For 7 days
  • Water Temperature
  • Satellite Maps
  • Weather Map
  • Weather Widgets
  • user-avatar
    Login

    Hourly Weather Szpegawsk

    Today, 21 April, Saturday

    Time Temperature Precipitation Wind Pressure Humidity
    00:00 +15°C° 0 mm 5 mps 755 mmHg 75%
    01:00 +15°C° 0 mm 5 mps 755 mmHg 77%
    02:00 +14°C° 0 mm 5 mps 755 mmHg 78%
    03:00 +13°C° 0 mm 5 mps 754 mmHg 79%
    04:00 +12°C° 0 mm 5 mps 754 mmHg 80%
    05:00 +12°C° 0 mm 5 mps 754 mmHg 77%
    06:00 +13°C° 0 mm 6 mps 754 mmHg 75%
    07:00 +13°C° 0 mm 6 mps 755 mmHg 73%
    08:00 +14°C° 0 mm 6 mps 755 mmHg 64%
    09:00 +15°C° 0 mm 7 mps 755 mmHg 55%
    10:00 +16°C° 0 mm 7 mps 756 mmHg 46%
    11:00 +16°C° 0 mm 7 mps 756 mmHg 43%
    12:00 +17°C° 0 mm 7 mps 756 mmHg 41%
    13:00 +17°C° 0 mm 7 mps 756 mmHg 38%
    14:00 +16°C° 0 mm 7 mps 756 mmHg 40%
    15:00 +16°C° 0 mm 6 mps 756 mmHg 43%
    16:00 +15°C° 0 mm 6 mps 756 mmHg 45%
    17:00 +14°C° 0 mm 5 mps 756 mmHg 51%
    18:00 +12°C° 0 mm 5 mps 756 mmHg 56%
    19:00 +11°C° 0 mm 4 mps 756 mmHg 62%
    20:00 +10°C° 0 mm 4 mps 756 mmHg 65%
    21:00 +8°C° 0 mm 4 mps 757 mmHg 68%
    22:00 +8°C° 0 mm 4 mps 757 mmHg 71%
    23:00 +7°C° 0 mm 4 mps 757 mmHg 73%

    Tomorrow, 22 April, Sunday

    Time Temperature Precipitation Wind Pressure Humidity
    00:00 +7°C° 0 mm 4 mps 757 mmHg 74%
    01:00 +6°C° 0 mm 4 mps 757 mmHg 76%
    02:00 +6°C° 0 mm 4 mps 757 mmHg 78%
    03:00 +5°C° 0 mm 4 mps 757 mmHg 80%
    04:00 +5°C° 0 mm 3 mps 757 mmHg 82%
    05:00 +7°C° 0 mm 3 mps 757 mmHg 78%
    06:00 +7°C° 0 mm 4 mps 757 mmHg 73%
    07:00 +8°C° 0 mm 4 mps 757 mmHg 69%
    08:00 +10°C° 0 mm 3 mps 757 mmHg 62%
    09:00 +12°C° 0 mm 3 mps 757 mmHg 55%
    10:00 +14°C° 0 mm 3 mps 757 mmHg 48%
    11:00 +16°C° 0 mm 3 mps 757 mmHg 45%
    12:00 +16°C° 0 mm 3 mps 757 mmHg 42%
    13:00 +17°C° 0 mm 3 mps 757 mmHg 39%
    14:00 +17°C° 0 mm 3 mps 756 mmHg 40%
    15:00 +17°C° 0 mm 3 mps 756 mmHg 42%
    16:00 +17°C° 0 mm 3 mps 756 mmHg 43%
    17:00 +15°C° 0 mm 2 mps 756 mmHg 51%
    18:00 +13°C° 0 mm 2 mps 755 mmHg 58%
    19:00 +10°C° 0 mm 2 mps 755 mmHg 65%
    20:00 +9°C° 0 mm 2 mps 755 mmHg 67%
    21:00 +9°C° 0 mm 2 mps 755 mmHg 70%
    22:00 +8°C° 0 mm 2 mps 755 mmHg 72%
    23:00 +8°C° 0 mm 2 mps 755 mmHg 72%

    Day after tomorrow, 23 April, Monday

    Time Temperature Precipitation Wind Pressure Humidity
    00:00 +7°C° 0 mm 2 mps 755 mmHg 71%
    01:00 +7°C° 0 mm 2 mps 755 mmHg 71%
    02:00 +7°C° 0 mm 2 mps 754 mmHg 73%
    03:00 +7°C° 0 mm 2 mps 754 mmHg 75%
    04:00 +7°C° 0 mm 3 mps 753 mmHg 77%
    05:00 +8°C° 0 mm 3 mps 753 mmHg 74%
    06:00 +10°C° 0 mm 3 mps 752 mmHg 72%
    07:00 +11°C° 0 mm 4 mps 752 mmHg 69%
    08:00 +13°C° 0.1 mm 4 mps 751 mmHg 66%
    09:00 +14°C° 0.1 mm 5 mps 751 mmHg 63%
    10:00 +16°C° 0.1 mm 5 mps 750 mmHg 61%
    11:00 +16°C° 0.4 mm 5 mps 750 mmHg 65%
    12:00 +17°C° 0.4 mm 5 mps 750 mmHg 68%
    13:00 +17°C° 0.4 mm 5 mps 750 mmHg 72%
    14:00 +16°C° 0.3 mm 5 mps 750 mmHg 75%
    15:00 +15°C° 0.3 mm 5 mps 750 mmHg 78%
    16:00 +14°C° 0.3 mm 6 mps 750 mmHg 81%
    17:00 +13°C° 0 mm 5 mps 750 mmHg 81%
    18:00 +12°C° 0 mm 5 mps 750 mmHg 82%
    19:00 +10°C° 0 mm 4 mps 750 mmHg 82%
    20:00 +10°C° 0 mm 4 mps 751 mmHg 82%
    21:00 +8°C° 0 mm 4 mps 751 mmHg 82%
    22:00 +7°C° 0 mm 4 mps 751 mmHg 81%
    23:00 +7°C° 0 mm 4 mps 751 mmHg 82%

    24 April, Tuesday

    Time Temperature Precipitation Wind Pressure Humidity
    00:00 +6°C° 0 mm 4 mps 752 mmHg 83%
    01:00 +6°C° 0 mm 4 mps 752 mmHg 84%
    02:00 +6°C° 0 mm 4 mps 752 mmHg 86%
    03:00 +5°C° 0 mm 4 mps 752 mmHg 88%
    04:00 +5°C° 0 mm 4 mps 752 mmHg 91%
    05:00 +6°C° 0 mm 4 mps 752 mmHg 87%
    06:00 +6°C° 0 mm 5 mps 752 mmHg 83%
    07:00 +7°C° 0 mm 5 mps 752 mmHg 80%
    08:00 +8°C° 0 mm 5 mps 752 mmHg 74%
    09:00 +9°C° 0 mm 5 mps 752 mmHg 68%
    10:00 +10°C° 0 mm 5 mps 753 mmHg 63%
    11:00 +10°C° 0.2 mm 5 mps 752 mmHg 66%
    12:00 +10°C° 0.2 mm 5 mps 752 mmHg 69%
    13:00 +10°C° 0.2 mm 5 mps 752 mmHg 72%
    14:00 +10°C° 0.1 mm 5 mps 751 mmHg 75%
    15:00 +10°C° 0.1 mm 5 mps 751 mmHg 77%
    16:00 +10°C° 0.1 mm 5 mps 751 mmHg 80%
    17:00 +10°C° 0.1 mm 5 mps 751 mmHg 82%
    18:00 +10°C° 0.1 mm 5 mps 750 mmHg 84%
    19:00 +10°C° 0.1 mm 5 mps 750 mmHg 86%
    20:00 +9°C° 0.1 mm 5 mps 750 mmHg 86%
    21:00 +9°C° 0.1 mm 5 mps 751 mmHg 87%
    22:00 +9°C° 0.1 mm 5 mps 751 mmHg 87%
    23:00 +8°C° 0 mm 4 mps 750 mmHg 89%

    25 April, Wednesday

    Time Temperature Precipitation Wind Pressure Humidity
    00:00 +8°C° 0 mm 4 mps 750 mmHg 91%
    01:00 +8°C° 0 mm 4 mps 750 mmHg 93%
    02:00 +8°C° 0.9 mm 4 mps 750 mmHg 93%
    03:00 +8°C° 0.9 mm 4 mps 749 mmHg 93%
    04:00 +10°C° 0.9 mm 4 mps 748 mmHg 94%
    05:00 +10°C° 1 mm 4 mps 748 mmHg 93%
    06:00 +10°C° 1 mm 4 mps 748 mmHg 92%
    07:00 +10°C° 1 mm 4 mps 748 mmHg 91%
    08:00 +10°C° 0 mm 5 mps 749 mmHg 85%
    09:00 +10°C° 0 mm 5 mps 749 mmHg 80%
    10:00 +10°C° 0 mm 5 mps 750 mmHg 74%
    11:00 +10°C° 0.1 mm 5 mps 750 mmHg 71%
    12:00 +11°C° 0.1 mm 4 mps 750 mmHg 69%
    13:00 +10°C° 0.1 mm 4 mps 750 mmHg 66%
    14:00 +10°C° 0 mm 4 mps 750 mmHg 65%
    15:00 +10°C° 0 mm 3 mps 750 mmHg 65%
    16:00 +10°C° 0 mm 3 mps 750 mmHg 64%
    17:00 +9°C° 0 mm 3 mps 750 mmHg 66%
    18:00 +9°C° 0 mm 3 mps 750 mmHg 67%
    19:00 +8°C° 0 mm 2 mps 749 mmHg 69%
    20:00 +8°C° 0 mm 2 mps 750 mmHg 69%
    21:00 +8°C° 0 mm 3 mps 750 mmHg 70%
    22:00 +8°C° 0 mm 3 mps 750 mmHg 70%
    23:00 +7°C° 0 mm 3 mps 750 mmHg 72%

    26 April, Thursday

    Time Temperature Precipitation Wind Pressure Humidity
    00:00 +7°C° 0 mm 3 mps 750 mmHg 74%
    01:00 +6°C° 0 mm 4 mps 751 mmHg 76%
    02:00 +5°C° 0 mm 4 mps 751 mmHg 80%
    03:00 +5°C° 0 mm 4 mps 751 mmHg 85%
    04:00 +4°C° 0 mm 4 mps 751 mmHg 89%
    05:00 +5°C° 0 mm 4 mps 752 mmHg 84%
    06:00 +6°C° 0 mm 4 mps 752 mmHg 79%
    07:00 +7°C° 0 mm 5 mps 753 mmHg 74%
    08:00 +9°C° 0 mm 5 mps 753 mmHg 67%
    09:00 +10°C° 0 mm 5 mps 753 mmHg 60%
    10:00 +13°C° 0 mm 4 mps 753 mmHg 53%
    11:00 +13°C° 0.1 mm 5 mps 753 mmHg 54%
    12:00 +14°C° 0.1 mm 5 mps 753 mmHg 54%
    13:00 +14°C° 0.1 mm 5 mps 753 mmHg 55%
    14:00 +14°C° 0.6 mm 5 mps 752 mmHg 60%
    15:00 +13°C° 0.6 mm 5 mps 752 mmHg 64%
    16:00 +13°C° 0.6 mm 4 mps 752 mmHg 69%
    17:00 +12°C° 0.6 mm 4 mps 752 mmHg 74%
    18:00 +11°C° 0.6 mm 3 mps 752 mmHg 79%
    19:00 +9°C° 0.6 mm 3 mps 752 mmHg 84%
    20:00 +9°C° 0 mm 3 mps 752 mmHg 86%
    21:00 +8°C° 0 mm 3 mps 752 mmHg 87%
    22:00 +8°C° 0 mm 3 mps 752 mmHg 89%
    23:00 +7°C° 0 mm 3 mps 752 mmHg 90%
    Show more